Weather History for KAUW - October, 2013

Change the Weather History Date:

Thursday, October 31, 2013

  Actual Average Record
Temperature  
Mean Temperature 48 °F 40 °F  
Max Temperature 53 °F 49 °F 78 °F (1950)
Min Temperature 42 °F 32 °F 12 °F (1906)
Degree Days  
Heating Degree Days 17 25  
Month to date heating degree days 552 591  
Since 1 July heating degree days 780 884  
Cooling Degree Days 0 0  
Month to date cooling degree days 0 2  
Year to date cooling degree days 506 407  
Moisture  
Dew Point 49 °F    
Average Humidity 96    
Maximum Humidity 100    
Minimum Humidity 92    
Precipitation  
Precipitation 0.35 in 0.07 in 1.36 in (1960)
Month to date precipitation 4.30 2.94  
Year to date precipitation 34.69 29.05  
Snow  
Snow 0.00 in 0.10 in 1.60 in (1932)
Month to date snowfall T 1.4  
Since 1 July snowfall T 1.4  
Snow Depth 0.00 in    
Sea Level Pressure  
Sea Level Pressure 29.43 in    
Wind  
Wind Speed 7 mph (SW)    
Max Wind Speed 22 mph    
Max Gust Speed 28 mph    
Visibility 3 miles    
Events Fog , Rain    
T = Trace of Precipitation, MM = Missing Value Source: NWS Daily Summary

Daily Weather History Graph

Daily Weather History Graph

Search for Another Location

Airport or City:

Trip Planner

Search our weather history database for the weather conditions in past years. The results will help you decide how hot, cold, wet, or windy it might be!

Date:

Astronomy

Oct. 31, 2013 Rise Set
Actual Time 7:35 AM CDT 5:47 PM CDT
Civil Twilight 7:05 AM CDT 6:18 PM CDT
Nautical Twilight 6:30 AM CDT 6:52 PM CDT
Astronomical Twilight 5:56 AM CDT 7:26 PM CDT
Moon 4:17 AM CDT (10/31) 4:11 PM CDT (10/31)
Length of Visible Light 11h 13m
Length of Day
10h 11m
Waning Crescent, 10% of the Moon is Illuminated
Oct 31
Waning Crescent
Nov 3
New
Nov 9
First Quarter
Nov 17
Full
Nov 25
Last Quarter

Hourly Weather History & Observations

Time (CDT) Temp. Windchill Dew Point Humidity Pressure Visibility Wind Dir Wind Speed Gust Speed Precip Events Conditions
12:54 AM 50.0 °F - 50.0 °F 100% 29.72 in 0.5 mi SE 3.5 mph - 0.02 in Fog Fog
1:30 AM 50.0 °F - 50.0 °F 100% 29.67 in 1.0 mi ESE 4.6 mph - 0.02 in Rain Light Rain
1:39 AM 50.0 °F - 50.0 °F 100% 29.67 in 0.8 mi East 3.5 mph - 0.03 in Rain Light Rain
1:51 AM 50.0 °F - 48.2 °F 94% 29.65 in 1.2 mi East 3.5 mph - 0.03 in Rain Light Rain
1:54 AM 50.0 °F - 50.0 °F 100% 29.68 in 1.5 mi East 4.6 mph - 0.03 in   Overcast
2:19 AM 50.0 °F - 50.0 °F 100% 29.63 in 1.8 mi East 4.6 mph - 0.00 in   Overcast
2:34 AM 50.0 °F - 48.2 °F 94% 29.62 in 2.0 mi ESE 5.8 mph - 0.00 in   Overcast
2:40 AM 50.0 °F - 48.2 °F 94% 29.61 in 1.8 mi ESE 5.8 mph - 0.00 in   Overcast
2:54 AM 50.0 °F - 48.9 °F 96% 29.63 in 2.0 mi ESE 5.8 mph - 0.00 in   Overcast
3:09 AM 50.0 °F - 48.2 °F 94% 29.60 in 1.5 mi ESE 4.6 mph - N/A   Overcast
3:54 AM 50.0 °F - 50.0 °F 100% 29.60 in 1.2 mi ESE 4.6 mph - 0.01 in Rain Light Rain
4:17 AM 50.0 °F - 50.0 °F 100% 29.57 in 2.0 mi ESE 3.5 mph - 0.00 in Rain Light Rain
4:27 AM 50.0 °F - 50.0 °F 100% 29.56 in 1.5 mi East 4.6 mph - 0.07 in Rain Heavy Rain
4:43 AM 50.0 °F - 50.0 °F 100% 29.55 in 1.8 mi ESE 5.8 mph - 0.20 in Rain Heavy Rain
4:48 AM 50.0 °F - 50.0 °F 100% 29.55 in 2.0 mi ESE 5.8 mph - 0.22 in Rain Heavy Rain
4:54 AM 50.0 °F - 50.0 °F 100% 29.58 in 2.5 mi SE 4.6 mph - 0.23 in Rain Rain
4:56 AM 50.0 °F - 50.0 °F 100% 29.55 in 3.0 mi SE 4.6 mph - 0.01 in Rain Rain
5:54 AM 50.0 °F - 50.0 °F 100% 29.56 in 4.0 mi ESE 3.5 mph - 0.06 in Rain Light Rain
6:54 AM 50.0 °F - 50.0 °F 100% 29.54 in 3.0 mi Calm Calm - 0.00 in   Overcast
7:06 AM 50.0 °F - 48.2 °F 94% 29.52 in 2.5 mi Calm Calm - N/A   Overcast
7:27 AM 50.0 °F - 50.0 °F 100% 29.50 in 1.2 mi Calm Calm - N/A   Overcast
7:39 AM 50.0 °F - 50.0 °F 100% 29.51 in 0.8 mi Calm Calm - N/A   Overcast
7:47 AM 50.0 °F - 50.0 °F 100% 29.50 in 1.0 mi Calm Calm - N/A   Overcast
7:54 AM 50.0 °F - 50.0 °F 100% 29.52 in 0.8 mi Calm Calm - N/A   Overcast
8:54 AM 50.0 °F - 50.0 °F 100% 29.49 in 0.5 mi ESE 4.6 mph - 0.01 in Fog Fog
9:54 AM 51.1 °F - 51.1 °F 100% 29.47 in 0.2 mi Calm Calm - N/A Fog Fog
10:54 AM 51.1 °F - 51.1 °F 100% 29.45 in 0.2 mi Calm Calm - N/A Fog Fog
11:54 AM 52.0 °F - 51.1 °F 97% 29.42 in 0.2 mi Calm Calm - N/A Fog Fog
12:54 PM 52.0 °F - 52.0 °F 100% 29.38 in 0.2 mi Calm Calm - N/A Fog Fog
1:40 PM 51.8 °F - 51.8 °F 100% 29.33 in 2.0 mi Calm Calm - N/A   Overcast
1:50 PM 53.6 °F - 51.8 °F 94% 29.33 in 4.0 mi West 3.5 mph - N/A   Overcast
1:54 PM 53.1 °F - 52.0 °F 96% 29.35 in 3.0 mi Calm Calm - N/A   Overcast
1:58 PM 51.8 °F - 51.8 °F 100% 29.33 in 1.8 mi Calm Calm - N/A   Overcast
2:11 PM 53.6 °F - 51.8 °F 94% 29.32 in 3.0 mi Calm Calm - N/A   Overcast
2:20 PM 53.6 °F - 51.8 °F 94% 29.31 in 1.8 mi Calm Calm - N/A   Overcast
2:29 PM 53.6 °F - 51.8 °F 94% 29.30 in 3.0 mi Calm Calm - N/A   Overcast
2:54 PM 53.1 °F - 52.0 °F 96% 29.31 in 5.0 mi WNW 4.6 mph - N/A   Overcast
3:29 PM 53.6 °F - 51.8 °F 94% 29.27 in 1.8 mi NW 4.6 mph - N/A   Overcast
3:54 PM 53.1 °F - 52.0 °F 96% 29.28 in 1.8 mi West 4.6 mph - 0.00 in   Overcast
4:10 PM 53.6 °F - 51.8 °F 94% 29.26 in 3.0 mi WNW 4.6 mph - N/A   Overcast
4:26 PM 51.8 °F - 51.8 °F 100% 29.26 in 3.0 mi West 11.5 mph - N/A   Overcast
4:40 PM 51.8 °F - 51.8 °F 100% 29.26 in 2.0 mi WNW 11.5 mph - N/A   Overcast
4:47 PM 51.8 °F - 51.8 °F 100% 29.27 in 1.5 mi WNW 10.4 mph - N/A   Overcast
4:54 PM 52.0 °F - 51.1 °F 97% 29.29 in 1.2 mi West 9.2 mph - N/A   Overcast
5:10 PM 51.8 °F - 51.8 °F 100% 29.26 in 1.5 mi West 10.4 mph - N/A   Overcast
5:18 PM 51.8 °F - 50.0 °F 94% 29.26 in 1.5 mi West 11.5 mph - N/A   Overcast
5:33 PM 50.0 °F - 48.2 °F 94% 29.26 in 2.5 mi WNW 10.4 mph - N/A   Overcast
5:40 PM 50.0 °F - 48.2 °F 94% 29.27 in 3.0 mi West 11.5 mph - N/A   Overcast
5:54 PM 48.9 °F - 48.0 °F 97% 29.29 in 4.0 mi WNW 10.4 mph - N/A   Overcast
6:54 PM 48.0 °F - 46.9 °F 96% 29.28 in 8.0 mi West 8.1 mph - N/A   Overcast
7:54 PM 45.0 °F 37.4 °F 44.1 °F 97% 29.28 in 4.0 mi West 18.4 mph 27.6 mph N/A   Overcast
8:49 PM 44.6 °F 37.4 °F 42.8 °F 93% 29.24 in 10.0 mi West 16.1 mph 24.2 mph 0.01 in   Overcast
8:54 PM 44.1 °F 36.5 °F 42.1 °F 93% 29.26 in 10.0 mi West 17.3 mph 24.2 mph 0.01 in   Overcast
9:54 PM 44.1 °F 37.4 °F 42.1 °F 93% 29.25 in 10.0 mi West 13.8 mph - 0.00 in Rain Light Rain
10:54 PM 43.0 °F 36.4 °F 41.0 °F 93% 29.26 in 10.0 mi WNW 12.7 mph - 0.00 in   Overcast
11:54 PM 42.1 °F 34.2 °F 41.0 °F 96% 29.25 in 10.0 mi West 16.1 mph 23.0 mph N/A   Overcast